Lihue, HI

4:54 AM HST on April 24, 2017 (GMT -1000)
Lihue

Weather History for PHLI - May, 2014

Change the Weather History Date:

Sunday, May 11, 2014

  Actual Average Record
Temperature  
Mean Temperature 75 °F 75 °F  
Max Temperature 79 °F 81 °F 90 °F (2004)
Min Temperature 70 °F 70 °F 61 °F (1954)
Degree Days  
Heating Degree Days 0 0  
Month to date heating degree days 0 0  
Since 1 July heating degree days 0 0  
Cooling Degree Days 10 10  
Month to date cooling degree days 122 110  
Year to date cooling degree days 998 1014  
Growing Degree Days 24 (Base 50)    
Moisture  
Dew Point 69 °F    
Average Humidity 86    
Maximum Humidity 100    
Minimum Humidity 71    
Precipitation  
Precipitation 0.10 in 0.08 in 1.35 in (1977)
Month to date precipitation 0.39 0.86  
Year to date precipitation 13.37 14.63  
Snow  
Snow 0.00 in - - ()
Month to date snowfall 0.0  
Since 1 July snowfall 0.0  
Snow Depth 0.00 in    
Sea Level Pressure  
Sea Level Pressure 30.09 in    
Wind  
Wind Speed 17 mph (NNE)    
Max Wind Speed 24 mph    
Max Gust Speed 28 mph    
Visibility 8 miles    
Events Rain    
T = Trace of Precipitation, MM = Missing Value Source: NWS Daily Summary

Daily Weather History Graph

Daily Weather History Graph

Search for Another Location

Airport or City:

Trip Planner

Search our weather history database for the weather conditions in past years. The results will help you decide how hot, cold, wet, or windy it might be!

Date:

Astronomy

May. 11, 2014 Rise Set
Actual Time 5:59 AM HST 7:07 PM HST
Civil Twilight 5:35 AM HST 7:31 PM HST
Nautical Twilight 5:07 AM HST 8:00 PM HST
Astronomical Twilight 4:38 AM HST 8:29 PM HST
Moon 4:35 PM HST (5/11) 3:47 AM HST (5/11)
Length of Visible Light 13h 55m
Length of Day
13h 08m
Waxing Gibbous, 90% of the Moon is Illuminated
May 11
Waxing Gibbous
May 14
Full
May 21
Last Quarter
May 28
New
Jun 5
First Quarter

Hourly Weather History & Observations

Time (HST) Temp. Dew Point Humidity Pressure Visibility Wind Dir Wind Speed Gust Speed Precip Events Conditions
12:14 AM 71.6 °F 71.6 °F 100% 30.09 in 10.0 mi North 11.5 mph - 0.00 in   Overcast
12:36 AM 73.4 °F 71.6 °F 94% 30.09 in 10.0 mi North 12.7 mph 21.9 mph 0.00 in   Overcast
12:53 AM 72.0 °F 71.1 °F 97% 30.08 in 8.0 mi North 11.5 mph - 0.00 in Rain Light Rain
1:05 AM 71.6 °F 71.6 °F 100% 30.09 in 10.0 mi North 9.2 mph - 0.00 in   Overcast
1:36 AM 71.6 °F 69.8 °F 94% 30.08 in 10.0 mi North 8.1 mph - 0.00 in   Overcast
1:53 AM 72.0 °F 70.0 °F 93% 30.07 in 10.0 mi North 10.4 mph - 0.00 in   Overcast
2:01 AM 71.6 °F 69.8 °F 94% 30.08 in 10.0 mi North 11.5 mph - N/A   Overcast
2:05 AM 71.6 °F 69.8 °F 94% 30.07 in 10.0 mi North 11.5 mph - N/A   Overcast
2:32 AM 71.6 °F 69.8 °F 94% 30.07 in 8.0 mi North 9.2 mph - 0.00 in Rain Light Rain
2:53 AM 71.1 °F 70.0 °F 96% 30.06 in 4.0 mi North 12.7 mph - 0.02 in Rain Light Rain
3:05 AM 71.6 °F 69.8 °F 94% 30.06 in 9.0 mi North 10.4 mph - 0.00 in Rain Light Rain
3:51 AM 71.6 °F 69.8 °F 94% 30.06 in 10.0 mi NNE 16.1 mph - 0.00 in   Overcast
3:53 AM 72.0 °F 70.0 °F 93% 30.06 in 10.0 mi NNE 17.3 mph - 0.00 in   Overcast
4:08 AM 71.6 °F 71.6 °F 100% 30.06 in 10.0 mi NNE 16.1 mph - N/A   Overcast
4:18 AM 71.6 °F 71.6 °F 100% 30.06 in 5.0 mi NNE 16.1 mph 20.7 mph 0.02 in Rain Light Rain
4:53 AM 72.0 °F 70.0 °F 93% 30.06 in 9.0 mi NNE 16.1 mph - 0.02 in   Overcast
5:12 AM 71.6 °F 69.8 °F 94% 30.06 in 10.0 mi NNE 19.6 mph - 0.00 in   Overcast
5:26 AM 71.6 °F 69.8 °F 94% 30.07 in 4.0 mi NNE 16.1 mph - 0.00 in Rain Light Rain
5:53 AM 71.1 °F 70.0 °F 96% 30.06 in 10.0 mi NNE 16.1 mph - 0.00 in   Overcast
6:03 AM 71.6 °F 69.8 °F 94% 30.07 in 10.0 mi North 11.5 mph - N/A   Overcast
6:53 AM 71.1 °F 70.0 °F 96% 30.08 in 10.0 mi NNE 18.4 mph - N/A   Overcast
7:10 AM 71.6 °F 69.8 °F 94% 30.09 in 1.8 mi NNE 19.6 mph - N/A   Overcast
7:19 AM 69.8 °F 69.8 °F 100% 30.09 in 1.0 mi NNE 15.0 mph - 0.01 in Rain Light Rain
7:32 AM 71.6 °F 69.8 °F 94% 30.09 in 3.0 mi North 13.8 mph 23.0 mph 0.02 in   Overcast
7:49 AM 71.6 °F 69.8 °F 94% 30.10 in 10.0 mi North 17.3 mph 21.9 mph 0.02 in   Overcast
7:53 AM 72.0 °F 70.0 °F 93% 30.09 in 10.0 mi NNE 17.3 mph - 0.02 in   Overcast
8:00 AM 71.6 °F 69.8 °F 94% 30.10 in 10.0 mi NNE 18.4 mph - N/A   Overcast
8:28 AM 73.4 °F 71.6 °F 94% 30.10 in 10.0 mi NNE 16.1 mph - N/A   Overcast
8:53 AM 72.0 °F 70.0 °F 93% 30.10 in 3.0 mi NNE 15.0 mph - N/A   Overcast
9:00 AM 73.4 °F 71.6 °F 94% 30.11 in 2.5 mi NE 16.1 mph - 0.00 in Rain Light Rain
9:16 AM 73.4 °F 71.6 °F 94% 30.11 in 3.0 mi NNE 17.3 mph 24.2 mph 0.00 in Rain Light Rain
9:31 AM 71.6 °F 69.8 °F 94% 30.11 in 2.5 mi North 15.0 mph - 0.00 in   Overcast
9:36 AM 71.6 °F 71.6 °F 100% 30.11 in 4.0 mi NNE 18.4 mph 24.2 mph 0.01 in Rain Light Rain
9:47 AM 71.6 °F 71.6 °F 100% 30.11 in 2.5 mi NE 21.9 mph - 0.01 in Rain Light Rain
9:48 AM 72.0 °F 71.1 °F 97% 30.11 in 2.0 mi NE 20.7 mph - 0.01 in Rain Light Rain
9:50 AM 71.6 °F 71.6 °F 100% 30.11 in 1.8 mi NE 21.9 mph - 0.00 in Rain Rain
9:58 AM 71.6 °F 71.6 °F 100% 30.12 in 1.2 mi NNE 21.9 mph - 0.01 in Rain Rain
10:09 AM 73.4 °F 71.6 °F 94% 30.12 in 3.0 mi NNE 21.9 mph 25.3 mph 0.03 in Rain Light Rain
10:19 AM 73.4 °F 71.6 °F 94% 30.12 in 6.0 mi NNE 19.6 mph - 0.03 in Rain Light Rain
10:53 AM 73.0 °F 70.0 °F 90% 30.11 in 5.0 mi NE 19.6 mph 27.6 mph 0.03 in Rain Light Rain
11:19 AM 75.2 °F 69.8 °F 83% 30.11 in 10.0 mi NNE 19.6 mph - 0.00 in   Overcast
11:53 AM 75.0 °F 69.1 °F 82% 30.10 in 10.0 mi NNE 23.0 mph 26.5 mph 0.00 in   Overcast
12:33 PM 77.0 °F 69.8 °F 78% 30.09 in 10.0 mi NNE 19.6 mph - 0.00 in   Overcast
12:53 PM 75.9 °F 68.0 °F 76% 30.09 in 9.0 mi NNE 19.6 mph - 0.00 in   Overcast
1:40 PM 78.8 °F 68.0 °F 69% 30.08 in 10.0 mi NNE 19.6 mph - N/A   Overcast
1:53 PM 79.0 °F 68.0 °F 69% 30.06 in 10.0 mi NNE 18.4 mph - N/A   Overcast
2:17 PM 71.6 °F 69.8 °F 94% 30.07 in 3.0 mi North 20.7 mph 26.5 mph 0.00 in Rain Rain
2:53 PM 73.0 °F 70.0 °F 90% 30.06 in 6.0 mi NE 19.6 mph 26.5 mph 0.00 in   Overcast
3:53 PM 77.0 °F 69.1 °F 76% 30.04 in 10.0 mi NNE 20.7 mph - N/A   Overcast
4:13 PM 77.0 °F 66.2 °F 69% 30.04 in 10.0 mi NNE 20.7 mph 26.5 mph N/A   Overcast
4:53 PM 75.9 °F 66.9 °F 74% 30.04 in 10.0 mi NNE 21.9 mph 27.6 mph N/A   Mostly Cloudy
5:42 PM 73.4 °F 66.2 °F 78% 30.05 in 10.0 mi NNE 19.6 mph - N/A   Overcast
5:53 PM 73.9 °F 66.9 °F 79% 30.05 in 10.0 mi NNE 20.7 mph - N/A   Overcast
6:53 PM 73.9 °F 66.9 °F 79% 30.07 in 10.0 mi NNE 17.3 mph - N/A   Overcast
7:53 PM 73.9 °F 66.0 °F 76% 30.08 in 10.0 mi NNE 17.3 mph - N/A   Overcast
8:36 PM 73.4 °F 66.2 °F 78% 30.11 in 10.0 mi North 12.7 mph - N/A   Overcast
8:53 PM 72.0 °F 66.9 °F 84% 30.11 in 10.0 mi NNE 18.4 mph - N/A   Overcast
9:53 PM 73.0 °F 66.0 °F 79% 30.11 in 10.0 mi NNE 19.6 mph - 0.00 in   Overcast
10:11 PM 73.4 °F 66.2 °F 78% 30.12 in 10.0 mi NNE 19.6 mph - N/A   Overcast
10:20 PM 73.4 °F 66.2 °F 78% 30.12 in 10.0 mi NNE 19.6 mph - N/A   Overcast
10:53 PM 73.0 °F 64.9 °F 76% 30.11 in 10.0 mi NNE 16.1 mph - N/A   Overcast
11:13 PM 73.4 °F 64.4 °F 73% 30.11 in 10.0 mi NE 17.3 mph - N/A   Overcast
11:53 PM 72.0 °F 64.9 °F 78% 30.10 in 9.0 mi NNE 16.1 mph - N/A   Overcast